Ha'apai (NFTL)

Aerodrome — Elev 0
Tonga
S019.46.40.800 W174.20.28.800
Loading chart...

Current Weather

NFTL 220600Z 09011KT 9999 FEW010 BKN017 27/24 Q1010

Published 42 minutes ago

Airport Activity

Loading chart...
Loading chart...

Positions

CallsignRadio Name / Freq / Voice Room / TypeFrequencyVoice RoomType
NZZO_FSS Auckland Radio
128.900
nzzo_fss
128.900nzzo_fss
NSFA_CTR Faleolo Control
123.800
nsfa_ctr
123.800nsfa_ctr
UNICOM NZZO UNICOM
122.800
unicom_nzzo
122.800unicom_nzzo